Time,TemperatureF,DewpointF,PressureIn,WindDirection,WindDirectionDegrees,WindSpeedMPH,WindSpeedGustMPH,Humidity,HourlyPrecipIn,Conditions,Clouds,dailyrainin,SoftwareType,DateUTC
2013-02-09 00:01:00,11.3,8.9,29.87,NE,41,8.0,9.0,90,0.00,,,0.00,Wunderground v.1.15,2013-02-09 05:01:00,
2013-02-09 00:02:00,11.3,8.9,29.87,NNE,18,8.0,9.0,90,0.00,,,0.00,Wunderground v.1.15,2013-02-09 05:02:00,
2013-02-09 00:03:00,11.3,8.9,29.87,NNE,25,8.0,9.0,90,0.00,,,0.00,Wunderground v.1.15,2013-02-09 05:03:00,
2013-02-09 00:10:00,11.2,8.8,29.86,NE,46,8.0,14.0,90,0.00,,,0.00,Wunderground v.1.15,2013-02-09 05:10:00,
2013-02-09 00:16:00,11.1,8.7,29.85,NNE,25,9.0,17.0,90,0.00,,,0.00,Wunderground v.1.15,2013-02-09 05:16:00,
2013-02-09 00:21:00,11.0,8.6,29.85,North,349,9.0,10.0,90,0.00,,,0.00,Wunderground v.1.15,2013-02-09 05:21:00,
2013-02-09 00:27:00,11.0,8.6,29.84,NNE,30,9.0,15.0,90,0.00,,,0.00,Wunderground v.1.15,2013-02-09 05:27:00,
2013-02-09 00:32:00,10.9,8.5,29.83,NE,41,8.0,10.0,90,0.00,,,0.00,Wunderground v.1.15,2013-02-09 05:32:00,
2013-02-09 00:38:00,10.8,8.4,29.82,NNE,25,8.0,18.0,90,0.00,,,0.00,Wunderground v.1.15,2013-02-09 05:38:00,
2013-02-09 00:43:00,10.7,8.3,29.81,NE,44,9.0,14.0,90,0.00,,,0.00,Wunderground v.1.15,2013-02-09 05:43:00,
2013-02-09 00:48:00,10.6,8.2,29.80,NE,34,9.0,17.0,90,0.00,,,0.00,Wunderground v.1.15,2013-02-09 05:48:00,
2013-02-09 00:54:00,10.5,8.1,29.79,NE,49,9.0,11.0,90,0.00,,,0.00,Wunderground v.1.15,2013-02-09 05:54:00,
2013-02-09 01:00:00,10.4,8.0,29.79,NNE,25,10.0,11.0,90,0.00,,,0.00,Wunderground v.1.15,2013-02-09 06:00:00,
2013-02-09 01:05:00,10.3,8.0,29.78,NNW,345,10.0,16.0,90,0.00,,,0.00,Wunderground v.1.15,2013-02-09 06:05:00,
2013-02-09 01:11:00,10.2,7.9,29.79,NE,41,9.0,15.0,90,0.00,,,0.00,Wunderground v.1.15,2013-02-09 06:11:00,
2013-02-09 01:17:00,10.1,7.8,29.78,NNE,28,10.0,15.0,90,0.00,,,0.00,Wunderground v.1.15,2013-02-09 06:17:00,
2013-02-09 01:22:00,10.0,7.7,29.78,NE,41,10.0,10.0,90,0.00,,,0.00,Wunderground v.1.15,2013-02-09 06:22:00,
2013-02-09 01:28:00,10.0,7.7,29.77,ENE,58,9.0,15.0,90,0.00,,,0.00,Wunderground v.1.15,2013-02-09 06:28:00,
2013-02-09 01:33:00,9.8,7.5,29.76,NNE,15,10.0,16.0,90,0.00,,,0.00,Wunderground v.1.15,2013-02-09 06:33:00,
2013-02-09 01:39:00,9.8,7.5,29.75,NNE,27,9.0,17.0,90,0.00,,,0.00,Wunderground v.1.15,2013-02-09 06:39:00,
2013-02-09 01:44:00,9.7,7.4,29.75,NNE,17,10.0,14.0,90,0.00,,,0.00,Wunderground v.1.15,2013-02-09 06:44:00,
2013-02-09 01:49:00,9.6,7.3,29.74,NNE,25,10.0,16.0,90,0.00,,,0.00,Wunderground v.1.15,2013-02-09 06:49:00,
2013-02-09 01:55:00,9.6,7.3,29.75,North,9,10.0,16.0,90,0.00,,,0.00,Wunderground v.1.15,2013-02-09 06:55:00,
2013-02-09 02:01:00,9.5,7.2,29.75,NNE,20,10.0,10.0,90,0.00,,,0.00,Wunderground v.1.15,2013-02-09 07:01:00,
2013-02-09 02:07:00,9.5,7.2,29.76,NE,49,10.0,19.0,90,0.00,,,0.00,Wunderground v.1.15,2013-02-09 07:07:00,
2013-02-09 02:13:00,9.5,7.2,29.76,NNE,25,8.0,11.0,90,0.00,,,0.00,Wunderground v.1.15,2013-02-09 07:13:00,
2013-02-09 02:19:00,9.5,7.2,29.76,North,350,9.0,16.0,90,0.00,,,0.00,Wunderground v.1.15,2013-02-09 07:19:00,
2013-02-09 02:24:00,9.5,7.2,29.75,NNE,20,11.0,14.0,90,0.00,,,0.00,Wunderground v.1.15,2013-02-09 07:24:00,
2013-02-09 02:30:00,9.6,7.3,29.74,West,262,10.0,14.0,90,0.00,,,0.00,Wunderground v.1.15,2013-02-09 07:30:00,
2013-02-09 02:35:00,9.6,7.3,29.74,WNW,301,10.0,14.0,90,0.00,,,0.00,Wunderground v.1.15,2013-02-09 07:35:00,
2013-02-09 02:41:00,9.6,7.3,29.74,NNE,26,11.0,16.0,90,0.00,,,0.00,Wunderground v.1.15,2013-02-09 07:41:00,
2013-02-09 02:46:00,9.6,7.3,29.73,WNW,298,10.0,16.0,90,0.00,,,0.00,Wunderground v.1.15,2013-02-09 07:46:00,
2013-02-09 02:52:00,9.6,7.3,29.73,North,354,9.0,13.0,90,0.00,,,0.00,Wunderground v.1.15,2013-02-09 07:52:00,
2013-02-09 02:57:00,9.6,7.3,29.73,East,79,11.0,23.0,90,0.00,,,0.00,Wunderground v.1.15,2013-02-09 07:57:00,
2013-02-09 03:03:00,9.6,7.3,29.73,NE,41,12.0,13.0,90,0.00,,,0.00,Wunderground v.1.15,2013-02-09 08:03:00,
2013-02-09 03:08:00,9.6,7.3,29.73,NNE,26,11.0,13.0,90,0.00,,,0.00,Wunderground v.1.15,2013-02-09 08:08:00,
2013-02-09 03:14:00,9.5,7.2,29.73,NW,313,10.0,16.0,90,0.00,,,0.00,Wunderground v.1.15,2013-02-09 08:14:00,
2013-02-09 03:19:00,9.5,7.2,29.73,WNW,291,10.0,10.0,90,0.00,,,0.00,Wunderground v.1.15,2013-02-09 08:19:00,
2013-02-09 03:24:00,9.5,7.2,29.73,NNE,15,11.0,13.0,90,0.00,,,0.00,Wunderground v.1.15,2013-02-09 08:24:00,
2013-02-09 03:30:00,9.5,7.2,29.73,WNW,302,10.0,14.0,90,0.00,,,0.00,Wunderground v.1.15,2013-02-09 08:30:00,
2013-02-09 03:35:00,9.5,7.2,29.72,North,349,11.0,16.0,90,0.00,,,0.00,Wunderground v.1.15,2013-02-09 08:35:00,
2013-02-09 03:42:00,9.4,7.1,29.72,NNE,21,11.0,12.0,90,0.00,,,0.00,Wunderground v.1.15,2013-02-09 08:42:00,
2013-02-09 03:47:00,9.5,7.2,29.72,NE,42,11.0,15.0,90,0.00,,,0.00,Wunderground v.1.15,2013-02-09 08:47:00,
2013-02-09 03:53:00,9.5,7.2,29.72,NNE,27,10.0,13.0,90,0.00,,,0.00,Wunderground v.1.15,2013-02-09 08:53:00,
2013-02-09 03:58:00,9.5,7.2,29.71,NE,56,11.0,16.0,90,0.00,,,0.00,Wunderground v.1.15,2013-02-09 08:58:00,
2013-02-09 04:03:00,9.5,7.2,29.71,West,265,11.0,17.0,90,0.00,,,0.00,Wunderground v.1.15,2013-02-09 09:03:00,
2013-02-09 04:08:00,9.5,7.2,29.70,NNE,30,11.0,21.0,90,0.00,,,0.00,Wunderground v.1.15,2013-02-09 09:08:00,
2013-02-09 04:13:00,9.6,7.3,29.70,North,360,12.0,20.0,90,0.00,,,0.00,Wunderground v.1.15,2013-02-09 09:13:00,
2013-02-09 04:19:00,9.6,7.3,29.69,NNE,15,11.0,20.0,90,0.00,,,0.00,Wunderground v.1.15,2013-02-09 09:19:00,
2013-02-09 04:25:00,9.7,7.4,29.69,NE,53,11.0,12.0,90,0.00,,,0.00,Wunderground v.1.15,2013-02-09 09:25:00,
2013-02-09 04:30:00,9.7,7.4,29.69,NE,36,13.0,13.0,90,0.00,,,0.00,Wunderground v.1.15,2013-02-09 09:30:00,
2013-02-09 04:35:00,9.8,7.5,29.68,NNE,27,13.0,13.0,90,0.00,,,0.00,Wunderground v.1.15,2013-02-09 09:35:00,
2013-02-09 04:41:00,9.9,7.6,29.68,ESE,117,12.0,12.0,90,0.00,,,0.00,Wunderground v.1.15,2013-02-09 09:41:00,
2013-02-09 04:47:00,10.0,7.7,29.68,NNE,30,12.0,16.0,90,0.00,,,0.00,Wunderground v.1.15,2013-02-09 09:47:00,
2013-02-09 04:53:00,10.0,7.7,29.67,NNE,31,11.0,13.0,90,0.00,,,0.00,Wunderground v.1.15,2013-02-09 09:53:00,
2013-02-09 04:58:00,10.2,7.9,29.67,NNE,31,11.0,13.0,90,0.00,,,0.00,Wunderground v.1.15,2013-02-09 09:58:00,
2013-02-09 05:04:00,10.2,7.9,29.67,NE,49,12.0,15.0,90,0.00,,,0.00,Wunderground v.1.15,2013-02-09 10:04:00,
2013-02-09 05:09:00,10.3,8.0,29.67,West,260,11.0,15.0,90,0.00,,,0.00,Wunderground v.1.15,2013-02-09 10:09:00,
2013-02-09 05:14:00,10.6,8.2,29.67,ENE,69,11.0,17.0,90,0.00,,,0.00,Wunderground v.1.15,2013-02-09 10:14:00,
2013-02-09 05:20:00,10.7,8.3,29.67,NNE,32,11.0,20.0,90,0.00,,,0.00,Wunderground v.1.15,2013-02-09 10:20:00,
2013-02-09 05:26:00,10.7,8.3,29.67,ENE,58,11.0,20.0,90,0.00,,,0.00,Wunderground v.1.15,2013-02-09 10:26:00,
2013-02-09 05:31:00,10.7,8.3,29.68,WNW,287,11.0,11.0,90,0.00,,,0.00,Wunderground v.1.15,2013-02-09 10:31:00,
2013-02-09 05:37:00,10.6,8.2,29.68,North,9,10.0,19.0,90,0.00,,,0.00,Wunderground v.1.15,2013-02-09 10:37:00,
2013-02-09 05:43:00,10.5,8.1,29.69,NNE,23,11.0,16.0,90,0.00,,,0.00,Wunderground v.1.15,2013-02-09 10:43:00,
2013-02-09 05:48:00,10.4,8.0,29.69,North,9,11.0,23.0,90,0.00,,,0.00,Wunderground v.1.15,2013-02-09 10:48:00,
2013-02-09 05:53:00,10.3,8.0,29.69,NW,307,10.0,11.0,90,0.00,,,0.00,Wunderground v.1.15,2013-02-09 10:53:00,
2013-02-09 05:58:00,10.3,8.0,29.68,NE,34,10.0,13.0,90,0.00,,,0.00,Wunderground v.1.15,2013-02-09 10:58:00,
2013-02-09 06:03:00,10.2,7.9,29.69,NE,37,11.0,14.0,90,0.00,,,0.00,Wunderground v.1.15,2013-02-09 11:03:00,
2013-02-09 06:08:00,10.1,7.8,29.69,NNE,12,10.0,14.0,90,0.00,,,0.00,Wunderground v.1.15,2013-02-09 11:08:00,
2013-02-09 06:14:00,10.1,7.5,29.69,North,354,11.0,19.0,89,0.00,,,0.00,Wunderground v.1.15,2013-02-09 11:14:00,
2013-02-09 06:19:00,10.0,7.7,29.69,NE,51,11.0,19.0,90,0.00,,,0.00,Wunderground v.1.15,2013-02-09 11:19:00,
2013-02-09 06:25:00,10.0,7.7,29.69,NE,37,10.0,21.0,90,0.00,,,0.00,Wunderground v.1.15,2013-02-09 11:25:00,
2013-02-09 06:31:00,10.0,7.7,29.68,West,274,11.0,12.0,90,0.00,,,0.00,Wunderground v.1.15,2013-02-09 11:31:00,
2013-02-09 06:36:00,10.0,7.4,29.68,NW,314,11.0,14.0,89,0.00,,,0.00,Wunderground v.1.15,2013-02-09 11:36:00,
2013-02-09 06:41:00,10.0,7.4,29.69,WSW,239,12.0,27.0,89,0.00,,,0.00,Wunderground v.1.15,2013-02-09 11:41:00,
2013-02-09 06:47:00,10.0,7.4,29.69,NNE,23,11.0,27.0,89,0.00,,,0.00,Wunderground v.1.15,2013-02-09 11:47:00,
2013-02-09 06:52:00,10.0,7.4,29.69,NNE,23,11.0,15.0,89,0.00,,,0.00,Wunderground v.1.15,2013-02-09 11:52:00,
2013-02-09 06:58:00,10.0,7.4,29.69,East,82,11.0,19.0,89,0.00,,,0.00,Wunderground v.1.15,2013-02-09 11:58:00,
2013-02-09 07:03:00,10.1,7.5,29.70,NW,307,11.0,23.0,89,0.00,,,0.00,Wunderground v.1.15,2013-02-09 12:03:00,
2013-02-09 07:09:00,10.1,7.5,29.70,NE,49,11.0,23.0,89,0.00,,,0.00,Wunderground v.1.15,2013-02-09 12:09:00,
2013-02-09 07:15:00,10.1,7.5,29.69,NNW,335,10.0,15.0,89,0.00,,,0.00,Wunderground v.1.15,2013-02-09 12:15:00,
2013-02-09 07:20:00,10.2,7.6,29.69,NNE,15,9.0,14.0,89,0.00,,,0.00,Wunderground v.1.15,2013-02-09 12:20:00,
2013-02-09 07:26:00,10.2,7.6,29.68,ENE,73,10.0,16.0,89,0.00,,,0.00,Wunderground v.1.15,2013-02-09 12:26:00,
2013-02-09 07:30:00,10.2,7.6,29.68,NE,51,10.0,10.0,89,0.00,,,0.00,Wunderground v.1.15,2013-02-09 12:30:00,
2013-02-09 07:36:00,10.2,7.6,29.69,North,9,11.0,22.0,89,0.00,,,0.00,Wunderground v.1.15,2013-02-09 12:36:00,
2013-02-09 07:41:00,10.2,7.6,29.69,ENE,61,12.0,20.0,89,0.00,,,0.00,Wunderground v.1.15,2013-02-09 12:41:00,
2013-02-09 07:47:00,10.2,7.6,29.70,NE,44,11.0,20.0,89,0.00,,,0.00,Wunderground v.1.15,2013-02-09 12:47:00,
2013-02-09 07:53:00,10.2,7.6,29.69,NNE,17,10.0,11.0,89,0.00,,,0.00,Wunderground v.1.15,2013-02-09 12:53:00,
2013-02-09 07:59:00,10.3,7.7,29.70,North,8,9.0,11.0,89,0.00,,,0.00,Wunderground v.1.15,2013-02-09 12:59:00,
2013-02-09 08:04:00,10.3,7.7,29.69,NNE,20,11.0,13.0,89,0.00,,,0.00,Wunderground v.1.15,2013-02-09 13:04:00,
2013-02-09 08:09:00,10.4,7.8,29.70,NE,48,10.0,10.0,89,0.00,,,0.00,Wunderground v.1.15,2013-02-09 13:09:00,
2013-02-09 08:15:00,10.5,7.6,29.71,WSW,241,9.0,15.0,88,0.00,,,0.00,Wunderground v.1.15,2013-02-09 13:15:00,
2013-02-09 08:20:00,10.6,7.7,29.71,North,11,9.0,10.0,88,0.00,,,0.00,Wunderground v.1.15,2013-02-09 13:20:00,
2013-02-09 08:26:00,10.7,7.8,29.71,NNE,17,10.0,17.0,88,0.00,,,0.00,Wunderground v.1.15,2013-02-09 13:26:00,
2013-02-09 08:31:00,10.9,8.0,29.71,NNE,23,10.0,22.0,88,0.00,,,0.00,Wunderground v.1.15,2013-02-09 13:31:00,
2013-02-09 08:39:00,11.1,8.2,29.72,NE,56,8.0,22.0,88,0.00,,,0.00,Wunderground v.1.15,2013-02-09 13:39:00,
2013-02-09 08:44:00,11.3,8.4,29.72,NW,323,9.0,15.0,88,0.00,,,0.00,Wunderground v.1.15,2013-02-09 13:44:00,
2013-02-09 08:50:00,11.5,8.4,29.72,NNE,19,10.0,11.0,87,0.00,,,0.00,Wunderground v.1.15,2013-02-09 13:50:00,
2013-02-09 08:55:00,11.7,8.6,29.72,NNE,27,12.0,12.0,87,0.00,,,0.00,Wunderground v.1.15,2013-02-09 13:55:00,
2013-02-09 09:01:00,11.9,8.8,29.73,NNE,31,12.0,23.0,87,0.00,,,0.00,Wunderground v.1.15,2013-02-09 14:01:00,
2013-02-09 09:06:00,12.1,8.7,29.73,NNW,345,12.0,23.0,86,0.00,,,0.00,Wunderground v.1.15,2013-02-09 14:06:00,
2013-02-09 09:12:00,12.4,9.3,29.73,NNW,340,11.0,13.0,87,0.00,,,0.00,Wunderground v.1.15,2013-02-09 14:12:00,
2013-02-09 09:19:00,12.6,8.7,29.73,West,278,11.0,17.0,84,0.00,,,0.00,Wunderground v.1.15,2013-02-09 14:19:00,
2013-02-09 09:24:00,12.7,9.0,29.73,WNW,301,11.0,17.0,85,0.00,,,0.00,Wunderground v.1.15,2013-02-09 14:24:00,
2013-02-09 09:30:00,12.8,9.1,29.73,East,82,10.0,15.0,85,0.00,,,0.00,Wunderground v.1.15,2013-02-09 14:30:00,
2013-02-09 09:35:00,12.8,8.6,29.74,ENE,70,11.0,18.0,83,0.00,,,0.00,Wunderground v.1.15,2013-02-09 14:35:00,
2013-02-09 09:41:00,12.9,9.2,29.74,East,85,12.0,12.0,85,0.00,,,0.00,Wunderground v.1.15,2013-02-09 14:41:00,
2013-02-09 09:47:00,13.0,9.1,29.74,NNE,12,11.0,24.0,84,0.00,,,0.00,Wunderground v.1.15,2013-02-09 14:47:00,
2013-02-09 09:53:00,13.2,9.5,29.74,West,263,11.0,14.0,85,0.00,,,0.00,Wunderground v.1.15,2013-02-09 14:53:00,
2013-02-09 09:59:00,13.4,9.2,29.74,North,8,11.0,20.0,83,0.00,,,0.00,Wunderground v.1.15,2013-02-09 14:59:00,
2013-02-09 10:04:00,13.4,9.7,29.75,NNE,19,12.0,17.0,85,0.00,,,0.00,Wunderground v.1.15,2013-02-09 15:04:00,
2013-02-09 10:09:00,13.5,9.6,29.74,NW,323,12.0,19.0,84,0.00,,,0.00,Wunderground v.1.15,2013-02-09 15:09:00,
2013-02-09 10:15:00,13.6,9.7,29.74,NE,38,11.0,21.0,84,0.00,,,0.00,Wunderground v.1.15,2013-02-09 15:15:00,
2013-02-09 10:20:00,13.8,9.9,29.75,NNE,32,10.0,10.0,84,0.00,,,0.00,Wunderground v.1.15,2013-02-09 15:20:00,
2013-02-09 10:26:00,13.9,9.7,29.75,NE,35,9.0,19.0,83,0.00,,,0.00,Wunderground v.1.15,2013-02-09 15:26:00,
2013-02-09 10:31:00,14.0,9.2,29.75,NNE,32,12.0,22.0,81,0.00,,,0.00,Wunderground v.1.15,2013-02-09 15:31:00,
2013-02-09 10:37:00,14.0,9.8,29.76,NNW,340,12.0,22.0,83,0.00,,,0.00,Wunderground v.1.15,2013-02-09 15:37:00,
2013-02-09 10:43:00,14.1,9.9,29.76,NE,37,12.0,19.0,83,0.00,,,0.00,Wunderground v.1.15,2013-02-09 15:43:00,
2013-02-09 10:48:00,14.2,10.0,29.76,North,1,13.0,20.0,83,0.00,,,0.00,Wunderground v.1.15,2013-02-09 15:48:00,
2013-02-09 10:54:00,14.3,10.4,29.76,NNE,27,11.0,15.0,84,0.00,,,0.00,Wunderground v.1.15,2013-02-09 15:54:00,
2013-02-09 10:59:00,14.4,10.2,29.76,NE,46,10.0,19.0,83,0.00,,,0.00,Wunderground v.1.15,2013-02-09 15:59:00,
2013-02-09 11:05:00,14.4,10.2,29.76,NNE,29,12.0,20.0,83,0.00,,,0.00,Wunderground v.1.15,2013-02-09 16:05:00,
2013-02-09 11:10:00,14.5,10.3,29.76,NNE,29,12.0,16.0,83,0.00,,,0.00,Wunderground v.1.15,2013-02-09 16:10:00,
2013-02-09 11:16:00,14.5,10.8,29.75,NNE,30,10.0,16.0,85,0.00,,,0.00,Wunderground v.1.15,2013-02-09 16:16:00,
2013-02-09 11:22:00,14.6,10.6,29.76,NW,322,11.0,13.0,84,0.00,,,0.00,Wunderground v.1.15,2013-02-09 16:22:00,
2013-02-09 11:28:00,14.6,10.9,29.76,NE,52,10.0,13.0,85,0.00,,,0.00,Wunderground v.1.15,2013-02-09 16:28:00,
2013-02-09 11:34:00,14.7,11.3,29.76,NE,36,9.0,12.0,86,0.00,,,0.00,Wunderground v.1.15,2013-02-09 16:34:00,
2013-02-09 11:39:00,14.7,11.0,29.76,North,11,10.0,10.0,85,0.00,,,0.00,Wunderground v.1.15,2013-02-09 16:39:00,
2013-02-09 11:45:00,14.8,11.1,29.76,NE,37,10.0,11.0,85,0.00,,,0.00,Wunderground v.1.15,2013-02-09 16:45:00,
2013-02-09 11:50:00,14.9,11.2,29.76,North,356,10.0,10.0,85,0.00,,,0.00,Wunderground v.1.15,2013-02-09 16:50:00,
2013-02-09 11:55:00,15.1,11.4,29.77,NNE,25,10.0,13.0,85,0.00,,,0.00,Wunderground v.1.15,2013-02-09 16:55:00,
2013-02-09 12:01:00,15.3,11.3,29.77,NNW,335,10.0,13.0,84,0.00,,,0.00,Wunderground v.1.15,2013-02-09 17:01:00,
2013-02-09 12:06:00,15.6,11.4,29.78,NNE,13,10.0,27.0,83,0.00,,,0.00,Wunderground v.1.15,2013-02-09 17:06:00,
2013-02-09 12:13:00,15.9,10.8,29.77,NE,38,10.0,14.0,80,0.00,,,0.00,Wunderground v.1.15,2013-02-09 17:13:00,
2013-02-09 12:18:00,16.2,11.1,29.76,NNE,13,10.0,14.0,80,0.00,,,0.00,Wunderground v.1.15,2013-02-09 17:18:00,
2013-02-09 12:23:00,16.5,11.1,29.76,NNE,27,10.0,19.0,79,0.00,,,0.00,Wunderground v.1.15,2013-02-09 17:23:00,
2013-02-09 12:29:00,16.8,11.4,29.77,North,359,9.0,19.0,79,0.00,,,0.00,Wunderground v.1.15,2013-02-09 17:29:00,
2013-02-09 12:35:00,17.0,11.0,29.78,West,262,9.0,16.0,77,0.00,,,0.00,Wunderground v.1.15,2013-02-09 17:35:00,
2013-02-09 12:41:00,17.2,11.2,29.78,NNE,25,12.0,12.0,77,0.00,,,0.00,Wunderground v.1.15,2013-02-09 17:41:00,
2013-02-09 12:47:00,17.5,11.2,29.78,NE,38,10.0,15.0,76,0.00,,,0.00,Wunderground v.1.15,2013-02-09 17:47:00,
2013-02-09 12:53:00,17.7,11.1,29.79,NE,47,8.0,20.0,75,0.00,,,0.00,Wunderground v.1.15,2013-02-09 17:53:00,
2013-02-09 12:58:00,17.7,10.8,29.79,NE,37,10.0,20.0,74,0.00,,,0.00,Wunderground v.1.15,2013-02-09 17:58:00,
2013-02-09 13:03:00,17.7,10.8,29.79,West,273,12.0,14.0,74,0.00,,,0.00,Wunderground v.1.15,2013-02-09 18:03:00,
2013-02-09 13:08:00,17.7,10.8,29.80,ENE,62,11.0,16.0,74,0.00,,,0.00,Wunderground v.1.15,2013-02-09 18:08:00,
2013-02-09 13:13:00,17.7,10.8,29.80,NNE,25,11.0,12.0,74,0.00,,,0.00,Wunderground v.1.15,2013-02-09 18:13:00,
2013-02-09 13:19:00,17.7,11.1,29.80,NE,56,11.0,15.0,75,0.00,,,0.00,Wunderground v.1.15,2013-02-09 18:19:00,
2013-02-09 13:25:00,17.7,11.4,29.80,North,354,10.0,24.0,76,0.00,,,0.00,Wunderground v.1.15,2013-02-09 18:25:00,
2013-02-09 13:30:00,17.8,11.5,29.81,NNE,28,10.0,13.0,76,0.00,,,0.00,Wunderground v.1.15,2013-02-09 18:30:00,
2013-02-09 13:35:00,17.9,11.6,29.81,NNE,14,9.0,18.0,76,0.00,,,0.00,Wunderground v.1.15,2013-02-09 18:35:00,
2013-02-09 13:41:00,18.1,11.5,29.81,NNE,15,10.0,11.0,75,0.00,,,0.00,Wunderground v.1.15,2013-02-09 18:41:00,
2013-02-09 13:46:00,18.3,11.1,29.81,NNE,24,11.0,18.0,73,0.00,,,0.00,Wunderground v.1.15,2013-02-09 18:46:00,
2013-02-09 13:51:00,18.5,11.0,29.82,East,79,11.0,11.0,72,0.00,,,0.00,Wunderground v.1.15,2013-02-09 18:51:00,
2013-02-09 13:57:00,18.8,11.3,29.82,NNE,16,9.0,17.0,72,0.00,,,0.00,Wunderground v.1.15,2013-02-09 18:57:00,
2013-02-09 14:03:00,19.2,11.3,29.83,NE,35,8.0,17.0,71,0.00,,,0.00,Wunderground v.1.15,2013-02-09 19:03:00,
2013-02-09 14:09:00,19.3,10.8,29.82,North,6,9.0,24.0,69,0.00,,,0.00,Wunderground v.1.15,2013-02-09 19:09:00,
2013-02-09 14:14:00,19.3,10.8,29.83,NNE,15,11.0,14.0,69,0.00,,,0.00,Wunderground v.1.15,2013-02-09 19:14:00,
2013-02-09 14:20:00,19.4,10.6,29.83,NNE,27,10.0,10.0,68,0.00,,,0.00,Wunderground v.1.15,2013-02-09 19:20:00,
2013-02-09 14:26:00,19.6,10.4,29.84,NE,48,10.0,15.0,67,0.00,,,0.00,Wunderground v.1.15,2013-02-09 19:26:00,
2013-02-09 14:33:00,19.7,10.2,29.85,NE,44,10.0,10.0,66,0.00,,,0.00,Wunderground v.1.15,2013-02-09 19:33:00,
2013-02-09 14:38:00,19.8,10.3,29.85,NE,39,11.0,12.0,66,0.00,,,0.00,Wunderground v.1.15,2013-02-09 19:38:00,
2013-02-09 14:44:00,20.0,10.5,29.86,North,352,9.0,10.0,66,0.00,,,0.00,Wunderground v.1.15,2013-02-09 19:44:00,
2013-02-09 14:49:00,20.0,11.1,29.87,NW,314,6.0,10.0,68,0.00,,,0.00,Wunderground v.1.15,2013-02-09 19:49:00,
2013-02-09 14:54:00,20.0,11.1,29.87,NE,37,5.0,11.0,68,0.00,,,0.00,Wunderground v.1.15,2013-02-09 19:54:00,
2013-02-09 15:01:00,19.7,10.8,29.88,ENE,67,6.0,9.0,68,0.00,,,0.00,Wunderground v.1.15,2013-02-09 20:01:00,
2013-02-09 15:06:00,19.6,10.7,29.88,North,354,6.0,11.0,68,0.00,,,0.00,Wunderground v.1.15,2013-02-09 20:06:00,
2013-02-09 15:12:00,19.6,11.1,29.88,NNE,18,5.0,7.0,69,0.00,,,0.00,Wunderground v.1.15,2013-02-09 20:12:00,
2013-02-09 15:17:00,19.2,11.0,29.90,NNE,19,5.0,9.0,70,0.00,,,0.00,Wunderground v.1.15,2013-02-09 20:17:00,
2013-02-09 15:23:00,18.5,10.7,29.90,NNE,33,5.0,9.0,71,0.00,,,0.00,Wunderground v.1.15,2013-02-09 20:23:00,
2013-02-09 15:28:00,18.1,10.6,29.90,ENE,63,5.0,9.0,72,0.00,,,0.00,Wunderground v.1.15,2013-02-09 20:28:00,
2013-02-09 15:34:00,17.9,10.7,29.90,NNW,343,5.0,11.0,73,0.00,,,0.00,Wunderground v.1.15,2013-02-09 20:34:00,
2013-02-09 15:39:00,17.7,10.5,29.91,NNW,341,4.0,11.0,73,0.00,,,0.00,Wunderground v.1.15,2013-02-09 20:39:00,
2013-02-09 15:44:00,17.6,10.4,29.91,North,5,4.0,8.0,73,0.00,,,0.00,Wunderground v.1.15,2013-02-09 20:44:00,
2013-02-09 15:50:00,17.5,10.3,29.92,NNE,13,3.0,5.0,73,0.00,,,0.00,Wunderground v.1.15,2013-02-09 20:50:00,
2013-02-09 15:55:00,17.4,10.2,29.92,WSW,239,4.0,12.0,73,0.00,,,0.00,Wunderground v.1.15,2013-02-09 20:55:00,
2013-02-09 16:01:00,17.3,9.8,29.92,SE,127,4.0,4.0,72,0.00,,,0.00,Wunderground v.1.15,2013-02-09 21:01:00,
2013-02-09 16:07:00,17.3,9.8,29.93,West,267,4.0,9.0,72,0.00,,,0.00,Wunderground v.1.15,2013-02-09 21:07:00,
2013-02-09 16:12:00,17.2,9.7,29.93,East,94,4.0,5.0,72,0.00,,,0.00,Wunderground v.1.15,2013-02-09 21:12:00,
2013-02-09 16:18:00,17.3,9.8,29.93,NNW,338,4.0,7.0,72,0.00,,,0.00,Wunderground v.1.15,2013-02-09 21:18:00,
2013-02-09 16:24:00,17.3,9.5,29.93,WNW,290,5.0,6.0,71,0.00,,,0.00,Wunderground v.1.15,2013-02-09 21:24:00,
2013-02-09 16:30:00,17.3,9.5,29.94,NNE,25,4.0,4.0,71,0.00,,,0.00,Wunderground v.1.15,2013-02-09 21:30:00,
2013-02-09 16:36:00,17.4,9.0,29.94,WNW,293,5.0,7.0,69,0.00,,,0.00,Wunderground v.1.15,2013-02-09 21:36:00,
2013-02-09 16:41:00,17.4,8.6,29.95,ENE,57,5.0,14.0,68,0.00,,,0.00,Wunderground v.1.15,2013-02-09 21:41:00,
2013-02-09 16:46:00,17.4,8.6,29.95,NE,54,6.0,14.0,68,0.00,,,0.00,Wunderground v.1.15,2013-02-09 21:46:00,
2013-02-09 16:52:00,17.4,8.3,29.95,ENE,62,7.0,9.0,67,0.00,,,0.00,Wunderground v.1.15,2013-02-09 21:52:00,
2013-02-09 16:58:00,17.4,8.3,29.96,NNE,33,7.0,14.0,67,0.00,,,0.00,Wunderground v.1.15,2013-02-09 21:58:00,
2013-02-09 17:04:00,17.5,8.1,29.96,East,80,7.0,13.0,66,0.00,,,0.00,Wunderground v.1.15,2013-02-09 22:04:00,
2013-02-09 17:09:00,17.4,7.6,29.96,NNE,32,6.0,13.0,65,0.00,,,0.00,Wunderground v.1.15,2013-02-09 22:09:00,
2013-02-09 17:15:00,17.5,8.1,29.96,West,268,5.0,10.0,66,0.00,,,0.00,Wunderground v.1.15,2013-02-09 22:15:00,
2013-02-09 17:20:00,17.5,7.7,29.97,NE,41,4.0,7.0,65,0.00,,,0.00,Wunderground v.1.15,2013-02-09 22:20:00,
2013-02-09 17:26:00,17.5,7.7,29.97,North,358,5.0,15.0,65,0.00,,,0.00,Wunderground v.1.15,2013-02-09 22:26:00,
2013-02-09 17:31:00,17.6,7.5,29.98,NNE,23,5.0,11.0,64,0.00,,,0.00,Wunderground v.1.15,2013-02-09 22:31:00,
2013-02-09 17:36:00,17.6,7.5,29.98,NW,314,5.0,12.0,64,0.00,,,0.00,Wunderground v.1.15,2013-02-09 22:36:00,
2013-02-09 17:41:00,17.7,7.6,29.99,NNE,12,4.0,6.0,64,0.00,,,0.00,Wunderground v.1.15,2013-02-09 22:41:00,
2013-02-09 17:48:00,17.7,7.2,29.99,NNE,23,4.0,12.0,63,0.00,,,0.00,Wunderground v.1.15,2013-02-09 22:48:00,
2013-02-09 17:53:00,17.7,7.2,29.99,NNW,338,5.0,9.0,63,0.00,,,0.00,Wunderground v.1.15,2013-02-09 22:53:00,
2013-02-09 17:59:00,17.7,7.6,30.00,South,184,4.0,9.0,64,0.00,,,0.00,Wunderground v.1.15,2013-02-09 22:59:00,
2013-02-09 18:04:00,17.5,7.4,30.00,West,280,3.0,4.0,64,0.00,,,0.00,Wunderground v.1.15,2013-02-09 23:04:00,
2013-02-09 18:10:00,17.3,7.5,30.00,NNE,28,4.0,4.0,65,0.00,,,0.00,Wunderground v.1.15,2013-02-09 23:10:00,
2013-02-09 18:16:00,17.2,7.4,30.00,NW,314,4.0,5.0,65,0.00,,,0.00,Wunderground v.1.15,2013-02-09 23:16:00,
2013-02-09 18:21:00,17.1,7.7,30.01,North,352,4.0,6.0,66,0.00,,,0.00,Wunderground v.1.15,2013-02-09 23:21:00,
2013-02-09 18:26:00,17.0,7.6,30.01,WNW,291,4.0,6.0,66,0.00,,,0.00,Wunderground v.1.15,2013-02-09 23:26:00,
2013-02-09 18:31:00,16.9,7.5,30.02,NE,37,4.0,8.0,66,0.00,,,0.00,Wunderground v.1.15,2013-02-09 23:31:00,
2013-02-09 18:37:00,16.9,7.5,30.02,ENE,60,4.0,8.0,66,0.00,,,0.00,Wunderground v.1.15,2013-02-09 23:37:00,
2013-02-09 18:43:00,16.8,7.4,30.02,ESE,111,4.0,9.0,66,0.00,,,0.00,Wunderground v.1.15,2013-02-09 23:43:00,
2013-02-09 18:49:00,16.8,7.1,30.03,NNE,32,4.0,9.0,65,0.00,,,0.00,Wunderground v.1.15,2013-02-09 23:49:00,
2013-02-09 18:54:00,16.8,7.1,30.03,North,8,4.0,6.0,65,0.00,,,0.00,Wunderground v.1.15,2013-02-09 23:54:00,
2013-02-09 18:59:00,16.8,7.1,30.03,WNW,301,5.0,5.0,65,0.00,,,0.00,Wunderground v.1.15,2013-02-09 23:59:00,
2013-02-09 19:05:00,16.8,7.1,30.03,NNE,20,5.0,7.0,65,0.00,,,0.00,Wunderground v.1.15,2013-02-10 00:05:00,
2013-02-09 19:10:00,16.8,7.1,30.03,NE,41,4.0,6.0,65,0.00,,,0.00,Wunderground v.1.15,2013-02-10 00:10:00,
2013-02-09 19:15:00,16.9,7.2,30.04,SSE,155,5.0,7.0,65,0.00,,,0.00,Wunderground v.1.15,2013-02-10 00:15:00,
2013-02-09 19:21:00,16.9,7.2,30.04,NNE,25,5.0,7.0,65,0.00,,,0.00,Wunderground v.1.15,2013-02-10 00:21:00,
2013-02-09 19:27:00,16.9,6.8,30.05,North,6,4.0,7.0,64,0.00,,,0.00,Wunderground v.1.15,2013-02-10 00:27:00,
2013-02-09 19:32:00,17.0,6.9,30.05,NNW,338,3.0,4.0,64,0.00,,,0.00,Wunderground v.1.15,2013-02-10 00:32:00,
2013-02-09 19:38:00,16.9,6.8,30.05,NNW,345,3.0,9.0,64,0.00,,,0.00,Wunderground v.1.15,2013-02-10 00:38:00,
2013-02-09 19:43:00,16.9,6.8,30.05,NNE,28,3.0,5.0,64,0.00,,,0.00,Wunderground v.1.15,2013-02-10 00:43:00,
2013-02-09 19:48:00,16.9,6.8,30.05,NNE,32,3.0,5.0,64,0.00,,,0.00,Wunderground v.1.15,2013-02-10 00:48:00,
2013-02-09 19:54:00,16.9,6.8,30.05,West,273,4.0,6.0,64,0.00,,,0.00,Wunderground v.1.15,2013-02-10 00:54:00,
2013-02-09 20:00:00,16.9,6.8,30.05,NE,39,3.0,5.0,64,0.00,,,0.00,Wunderground v.1.15,2013-02-10 01:00:00,
2013-02-09 20:06:00,16.9,6.5,30.05,NNW,340,3.0,8.0,63,0.00,,,0.00,Wunderground v.1.15,2013-02-10 01:06:00,
2013-02-09 20:12:00,17.0,6.6,30.06,SW,214,4.0,7.0,63,0.00,,,0.00,Wunderground v.1.15,2013-02-10 01:12:00,
2013-02-09 20:18:00,17.0,6.6,30.06,WNW,303,3.0,7.0,63,0.00,,,0.00,Wunderground v.1.15,2013-02-10 01:18:00,
2013-02-09 20:23:00,16.9,6.5,30.06,NNW,327,3.0,4.0,63,0.00,,,0.00,Wunderground v.1.15,2013-02-10 01:23:00,
2013-02-09 20:29:00,16.9,6.5,30.06,ENE,73,3.0,4.0,63,0.00,,,0.00,Wunderground v.1.15,2013-02-10 01:29:00,
2013-02-09 20:35:00,17.0,6.6,30.06,NNE,30,3.0,4.0,63,0.00,,,0.00,Wunderground v.1.15,2013-02-10 01:35:00,
2013-02-09 20:40:00,17.0,6.6,30.07,West,266,4.0,4.0,63,0.00,,,0.00,Wunderground v.1.15,2013-02-10 01:40:00,
2013-02-09 20:46:00,17.1,6.7,30.07,WNW,300,3.0,9.0,63,0.00,,,0.00,Wunderground v.1.15,2013-02-10 01:46:00,
2013-02-09 20:51:00,17.2,6.8,30.07,NE,38,3.0,4.0,63,0.00,,,0.00,Wunderground v.1.15,2013-02-10 01:51:00,
2013-02-09 20:56:00,17.3,7.2,30.07,WNW,285,3.0,4.0,64,0.00,,,0.00,Wunderground v.1.15,2013-02-10 01:56:00,
2013-02-09 21:01:00,17.2,7.1,30.07,NW,322,3.0,3.0,64,0.00,,,0.00,Wunderground v.1.15,2013-02-10 02:01:00,
2013-02-09 21:07:00,17.3,7.5,30.07,NNW,333,2.0,5.0,65,0.00,,,0.00,Wunderground v.1.15,2013-02-10 02:07:00,
2013-02-09 21:13:00,17.2,7.8,30.07,ESE,120,3.0,7.0,66,0.00,,,0.00,Wunderground v.1.15,2013-02-10 02:13:00,
2013-02-09 21:18:00,17.1,7.7,30.07,NNE,15,3.0,8.0,66,0.00,,,0.00,Wunderground v.1.15,2013-02-10 02:18:00,
2013-02-09 21:23:00,17.2,7.8,30.08,NW,307,3.0,4.0,66,0.00,,,0.00,Wunderground v.1.15,2013-02-10 02:23:00,
2013-02-09 21:29:00,17.2,7.4,30.08,NW,322,3.0,8.0,65,0.00,,,0.00,Wunderground v.1.15,2013-02-10 02:29:00,
2013-02-09 21:34:00,17.1,7.3,30.08,ENE,58,3.0,7.0,65,0.00,,,0.00,Wunderground v.1.15,2013-02-10 02:34:00,
2013-02-09 21:39:00,17.2,7.1,30.08,NNE,20,3.0,9.0,64,0.00,,,0.00,Wunderground v.1.15,2013-02-10 02:39:00,
2013-02-09 21:45:00,17.2,7.1,30.08,NNW,346,3.0,4.0,64,0.00,,,0.00,Wunderground v.1.15,2013-02-10 02:45:00,
2013-02-09 21:51:00,17.2,7.1,30.08,NE,34,3.0,5.0,64,0.00,,,0.00,Wunderground v.1.15,2013-02-10 02:51:00,
2013-02-09 21:56:00,17.3,7.2,30.09,NW,325,3.0,6.0,64,0.00,,,0.00,Wunderground v.1.15,2013-02-10 02:56:00,
2013-02-09 22:01:00,17.3,6.8,30.09,North,8,3.0,6.0,63,0.00,,,0.00,Wunderground v.1.15,2013-02-10 03:01:00,
2013-02-09 22:06:00,17.4,6.9,30.09,South,186,4.0,6.0,63,0.00,,,0.00,Wunderground v.1.15,2013-02-10 03:06:00,
2013-02-09 22:11:00,17.4,6.9,30.09,WNW,288,4.0,4.0,63,0.00,,,0.00,Wunderground v.1.15,2013-02-10 03:11:00,
2013-02-09 22:16:00,17.4,6.6,30.09,ESE,121,4.0,5.0,62,0.00,,,0.00,Wunderground v.1.15,2013-02-10 03:16:00,
2013-02-09 22:22:00,17.4,6.6,30.09,NNW,345,4.0,4.0,62,0.00,,,0.00,Wunderground v.1.15,2013-02-10 03:22:00,
2013-02-09 22:28:00,17.2,6.4,30.09,SW,225,3.0,4.0,62,0.00,,,0.00,Wunderground v.1.15,2013-02-10 03:28:00,
2013-02-09 22:35:00,17.1,6.3,30.09,NNE,18,3.0,8.0,62,0.00,,,0.00,Wunderground v.1.15,2013-02-10 03:35:00,
2013-02-09 22:40:00,17.1,6.3,30.10,WNW,282,4.0,4.0,62,0.00,,,0.00,Wunderground v.1.15,2013-02-10 03:40:00,
2013-02-09 22:46:00,17.0,5.9,30.10,SSE,153,4.0,6.0,61,0.00,,,0.00,Wunderground v.1.15,2013-02-10 03:46:00,
2013-02-09 22:51:00,16.9,6.1,30.09,North,9,3.0,7.0,62,0.00,,,0.00,Wunderground v.1.15,2013-02-10 03:51:00,
2013-02-09 22:57:00,16.8,5.7,30.09,ENE,65,3.0,10.0,61,0.00,,,0.00,Wunderground v.1.15,2013-02-10 03:57:00,
2013-02-09 23:02:00,16.7,5.6,30.09,East,88,3.0,3.0,61,0.00,,,0.00,Wunderground v.1.15,2013-02-10 04:02:00,
2013-02-09 23:09:00,16.8,5.7,30.10,North,360,4.0,8.0,61,0.00,,,0.00,Wunderground v.1.15,2013-02-10 04:09:00,
2013-02-09 23:14:00,16.7,5.6,30.10,North,4,4.0,5.0,61,0.00,,,0.00,Wunderground v.1.15,2013-02-10 04:14:00,
2013-02-09 23:19:00,16.6,5.5,30.10,NNE,27,3.0,9.0,61,0.00,,,0.00,Wunderground v.1.15,2013-02-10 04:19:00,
2013-02-09 23:25:00,16.5,5.4,30.10,ENE,68,4.0,9.0,61,0.00,,,0.00,Wunderground v.1.15,2013-02-10 04:25:00,
2013-02-09 23:31:00,16.5,5.4,30.10,West,273,4.0,6.0,61,0.00,,,0.00,Wunderground v.1.15,2013-02-10 04:31:00,
2013-02-09 23:36:00,16.4,5.3,30.10,North,4,4.0,6.0,61,0.00,,,0.00,Wunderground v.1.15,2013-02-10 04:36:00,
2013-02-09 23:42:00,16.3,5.2,30.10,NNE,18,4.0,5.0,61,0.00,,,0.00,Wunderground v.1.15,2013-02-10 04:42:00,
2013-02-09 23:47:00,16.2,5.5,30.10,West,264,3.0,5.0,62,0.00,,,0.00,Wunderground v.1.15,2013-02-10 04:47:00,
2013-02-09 23:53:00,16.0,4.9,30.10,East,88,3.0,9.0,61,0.00,,,0.00,Wunderground v.1.15,2013-02-10 04:53:00,
2013-02-09 23:59:00,15.9,5.2,30.10,NNE,25,3.0,9.0,62,0.00,,,0.00,Wunderground v.1.15,2013-02-10 04:59:00,